EW8799 Weather Reports


time (UTC)temp
C
wind
direction
speed
KPH
gust
KPH
rain 1hr
cm
rain 24hr
cm
rain mn
cm
humidity
%
barometer
mb
20260906022123 24 32 4.8 8.0 0.00 0.00 0.00 92 989.0
20260906021122 24 41 3.2 6.4 0.00 0.00 0.00 91 989.0
20260906020123 25 31 3.2 6.4 0.00 0.00 0.00 91 989.0
20260906015123 25 46 3.2 8.0 0.00 0.00 0.00 90 988.9
20260906014122 25 19 3.2 6.4 0.00 0.00 0.00 90 988.7
20260906013122 25 38 3.2 6.4 0.00 0.00 0.00 89 988.6
20260906012122 25 45 4.8 8.0 0.00 0.00 0.00 89 988.6
20260906011122 26 47 6.4 11.3 0.00 0.00 0.00 88 988.2
20260906010143 26 38 6.4 11.3 0.00 0.00 0.00 87 988.2
20260906005122 26 36 6.4 8.0 0.00 0.00 0.00 85 988.2
20260906004122 27 42 8.0 12.9 0.00 0.00 0.00 84 988.0
20260906003122 27 50 6.4 11.3 0.00 0.00 0.00 82 988.0
20260906002143 28 22 6.4 11.3 0.00 0.00 0.00 81 988.0
20260906001123 28 23 6.4 11.3 0.00 0.00 0.00 79 987.9
20260906000122 28 26 6.4 9.7 0.00 0.00 0.00 79 987.9
20260905235122 29 18 6.4 9.7 0.00 0.00 0.00 78 988.0
20260905234143 29 33 6.4 11.3 0.00 0.00 0.00 78 987.8
20260905233143 30 49 8.0 11.3 0.00 0.00 0.00 77 987.5
20260905232123 30 39 8.0 14.5 0.00 0.00 0.00 76 987.4
20260905231122 30 51 8.0 12.9 0.00 0.00 0.00 75 987.2
20260905230122 31 39 8.0 16.1 0.00 0.00 0.00 75 987.2
20260905225122 31 43 8.0 12.9 0.00 0.00 0.00 74 987.6
20260905224123 32 45 8.0 12.9 0.00 0.00 0.00 72 987.4
20260905223143 32 60 6.4 12.9 0.00 0.00 0.00 69 987.4
20260905222122 32 24 6.4 11.3 0.00 0.00 0.00 69 987.4
20260905221144 33 42 4.8 9.7 0.00 0.00 0.00 66 987.2
20260905220122 33 39 6.4 11.3 0.00 0.00 0.00 65 987.2
20260905215122 33 24 6.4 11.3 0.00 0.00 0.00 65 987.2
20260905214144 34 43 4.8 8.0 0.00 0.00 0.00 63 987.2
20260905213122 35 77 3.2 8.0 0.00 0.00 0.00 63 987.1
20260905212123 35 15 4.8 9.7 0.00 0.00 0.00 63 987.1
20260905211123 35 41 6.4 11.3 0.00 0.00 0.00 63 987.1
20260905210122 35 37 6.4 11.3 0.00 0.00 0.00 63 987.1
20260905205122 35 45 4.8 8.0 0.00 0.00 0.00 63 987.2
20260905204123 34 41 6.4 12.9 0.00 0.00 0.00 64 987.2
20260905203122 35 54 6.4 11.3 0.00 0.00 0.00 63 987.5
20260905202122 35 123 4.8 9.7 0.00 0.00 0.00 63 987.5
20260905201123 34 33 4.8 8.0 0.00 0.00 0.00 65 987.6
20260905200122 34 42 4.8 11.3 0.00 0.00 0.00 64 987.6
20260905195122 34 57 3.2 8.0 0.00 0.00 0.00 65 987.5
20260905194123 33 20 6.4 11.3 0.00 0.00 0.00 67 987.5
20260905193143 34 32 4.8 6.4 0.00 0.00 0.00 67 987.7
20260905192122 33 6 4.8 11.3 0.00 0.00 0.00 67 987.7
20260905191123 33 30 4.8 8.0 0.00 0.00 0.00 67 987.9
20260905190143 34 43 4.8 9.7 0.00 0.00 0.00 65 987.9
20260905185143 34 13 4.8 11.3 0.00 0.00 0.00 65 988.0
20260905184124 34 30 4.8 9.7 0.00 0.00 0.00 65 988.0
20260905183122 34 43 6.4 9.7 0.00 0.00 0.00 65 988.1
20260905182123 35 62 4.8 8.0 0.00 0.00 0.00 63 988.0
20260905181124 35 48 4.8 11.3 0.00 0.00 0.00 63 988.1
20260905180123 35 40 6.4 9.7 0.00 0.00 0.00 63 988.1
20260905175123 34 60 4.8 9.7 0.00 0.00 0.00 65 988.2
20260905174144 35 60 6.4 9.7 0.00 0.00 0.00 64 988.2
20260905173123 34 49 4.8 9.7 0.00 0.00 0.00 67 988.2
20260905172123 33 46 4.8 11.3 0.00 0.00 0.00 67 988.5
20260905171124 33 45 6.4 9.7 0.00 0.00 0.00 67 988.5
20260905170123 34 54 4.8 11.3 0.00 0.00 0.00 67 988.5
20260905165124 33 56 6.4 9.7 0.00 0.00 0.00 68 988.6
20260905164124 33 47 4.8 9.7 0.00 0.00 0.00 68 988.6
20260905163123 33 53 3.2 8.0 0.00 0.00 0.00 69 988.7
20260905162123 33 58 4.8 8.0 0.00 0.00 0.00 70 988.7
20260905161124 32 45 6.4 9.7 0.00 0.00 0.00 71 988.7
20260905160124 32 39 6.4 12.9 0.00 0.00 0.00 70 988.7
20260905155123 32 33 4.8 8.0 0.00 0.00 0.00 70 988.7
20260905154124 32 64 4.8 9.7 0.00 0.00 0.00 70 988.5
20260905153144 32 76 3.2 6.4 0.00 0.00 0.00 70 988.4
20260905152144 31 41 6.4 11.3 0.00 0.00 0.00 71 988.4
20260905151124 31 61 4.8 8.0 0.00 0.00 0.00 71 988.2
20260905150124 31 37 4.8 11.3 0.00 0.00 0.00 70 988.2
20260905145144 31 59 4.8 11.3 0.00 0.00 0.00 69 988.2
20260905144124 31 42 3.2 8.0 0.00 0.00 0.00 70 988.1
20260905143124 31 24 3.2 9.7 0.00 0.00 0.00 72 988.1
20260905142124 31 40 1.6 8.0 0.00 0.00 0.00 72 987.9
20260905141124 31 60 0.0 4.8 0.00 0.00 0.00 71 988.0
20260905140123 31 68 1.6 4.8 0.00 0.00 0.00 72 988.0
20260905135122 30 91 1.6 3.2 0.00 0.00 0.00 74 987.9
20260905134124 29 45 0.0 0.0 0.00 0.00 0.00 79 987.9
20260905133123 30 113 0.0 3.2 0.00 0.00 0.00 78 987.9
20260905132123 29 175 0.0 4.8 0.00 0.00 0.00 79 988.0
20260905131124 28 45 0.0 3.2 0.00 0.00 0.00 82 987.9
20260905130123 28 180 0.0 0.0 0.00 0.00 0.00 83 987.9
20260905125123 27 135 0.0 0.0 0.00 0.00 0.00 90 987.6
20260905124144 26 113 0.0 0.0 0.00 0.00 0.00 92 987.7
20260905123122 26 90 0.0 0.0 0.00 0.00 0.00 92 987.6
20260905122123 25 135 0.0 0.0 0.00 0.00 0.00 94 987.5
20260905121124 24 113 0.0 0.0 0.00 0.00 0.00 97 987.4
20260905120122 24 180 0.0 0.0 0.00 0.00 0.00 97 987.4
20260905115123 23 180 0.0 0.0 0.00 0.00 0.00 97 987.2
20260905114124 23 158 0.0 0.0 0.00 0.00 0.00 97 987.1
20260905113123 23 225 0.0 0.0 0.00 0.00 0.00 97 987.1
20260905112123 23 225 0.0 0.0 0.00 0.00 0.00 97 987.1
20260905111124 23 180 0.0 0.0 0.00 0.00 0.00 97 987.0
20260905110123 23 225 0.0 0.0 0.00 0.00 0.00 97 987.0
20260905105144 23 225 0.0 0.0 0.00 0.00 0.00 97 987.0
20260905104123 23 203 0.0 0.0 0.00 0.00 0.00 97 987.1
20260905103122 24 203 0.0 0.0 0.00 0.00 0.00 97 987.2
20260905102123 24 203 0.0 0.0 0.00 0.00 0.00 98 987.1
20260905101144 24 315 0.0 0.0 0.00 0.00 0.00 98 987.1
20260905100122 24 315 0.0 0.0 0.00 0.00 0.00 97 987.1
20260905095144 24 315 0.0 0.0 0.00 0.00 0.00 97 987.2
20260905094123 24 158 0.0 0.0 0.00 0.00 0.00 97 987.2
20260905093123 24 158 0.0 0.0 0.00 0.00 0.00 97 987.2
20260905092122 24 45 0.0 0.0 0.00 0.00 0.00 97 987.2
20260905091123 24 270 0.0 0.0 0.00 0.00 0.00 97 987.2
20260905090122 25 135 0.0 0.0 0.00 0.00 0.00 97 987.2
20260905085122 25 113 0.0 0.0 0.00 0.00 0.00 97 987.2
20260905084144 25 225 0.0 0.0 0.00 0.00 0.00 96 987.2
20260905083122 25 180 0.0 0.0 0.00 0.00 0.00 96 987.4
20260905082144 25 180 0.0 0.0 0.00 0.00 0.00 95 987.2
20260905081122 25 180 0.0 0.0 0.00 0.00 0.00 95 987.4
20260905080122 25 180 0.0 0.0 0.00 0.00 0.00 95 987.4
20260905075122 25 180 0.0 0.0 0.00 0.00 0.00 95 987.5
20260905074123 25 180 0.0 0.0 0.00 0.00 0.00 95 987.5
20260905073123 25 338 0.0 0.0 0.00 0.00 0.00 96 987.5
20260905072123 25 338 0.0 0.0 0.00 0.00 0.00 96 987.6
20260905071123 25 338 0.0 0.0 0.00 0.00 0.00 95 987.6
20260905070123 25 203 0.0 0.0 0.00 0.00 0.00 94 987.6
20260905065122 25 203 0.0 0.0 0.00 0.00 0.00 94 987.7
20260905064123 25 203 0.0 0.0 0.00 0.00 0.00 94 987.5
20260905063123 25 180 0.0 0.0 0.00 0.00 0.00 95 987.7
20260905062122 25 180 0.0 0.0 0.00 0.00 0.00 96 987.8
20260905061123 25 45 0.0 0.0 0.00 0.00 0.00 96 988.0
20260905060122 25 45 0.0 0.0 0.00 0.00 0.00 95 988.0
20260905055122 25 45 0.0 0.0 0.00 0.00 0.00 95 988.0
20260905054122 25 45 0.0 0.0 0.00 0.00 0.00 95 987.9
20260905053122 25 113 0.0 0.0 0.00 0.00 0.00 94 987.9
20260905052143 25 113 0.0 0.0 0.00 0.00 0.00 94 987.8
20260905051123 25 113 0.0 0.0 0.00 0.00 0.00 94 987.8
20260905050143 26 180 0.0 0.0 0.00 0.00 0.00 94 987.8
20260905045122 26 113 0.0 0.0 0.00 0.00 0.00 93 987.9
20260905044123 26 23 0.0 0.0 0.00 0.00 0.00 93 987.9
20260905043122 26 248 0.0 0.0 0.00 0.00 0.00 93 988.0
20260905042122 26 45 0.0 0.0 0.00 0.00 0.00 94 987.8
20260905041122 26 68 0.0 0.0 0.00 0.00 0.00 93 987.7
20260905040122 26 203 0.0 0.0 0.00 0.00 0.00 94 987.7
20260905035123 26 23 0.0 0.0 0.00 0.00 0.00 92 987.8
20260905034123 26 23 0.0 0.0 0.00 0.00 0.00 93 987.8
20260905033122 26 23 0.0 0.0 0.00 0.00 0.00 91 987.8
20260905032123 26 23 0.0 0.0 0.00 0.00 0.00 91 987.7
20260905031123 26 23 0.0 0.0 0.00 0.00 0.00 92 987.6
20260905030122 26 45 0.0 0.0 0.00 0.00 0.00 92 987.6
20260905025122 27 68 0.0 0.0 0.00 0.00 0.00 91 987.5
20260905024123 27 68 0.0 0.0 0.00 0.00 0.00 89 987.6
20260905023123 27 68 0.0 0.0 0.00 0.00 0.00 89 987.6